Location: Fort Wayne
(41.1310°N, 85.1290°W)
Time: 05:58:39
(UTC-04:00)

Oscar 19 - Visible Passes

Search period start: 01 July 2016 00:00
Search period end: 11 July 2016 00:00
Orbit: 773 x 791 km, 98.5° (Epoch: 30 June)

Date Brightness Start Highest point End Pass type
(mag) Time Alt. Az. Time Alt. Az. Time Alt. Az.
01 Jul 12.0 02:22:35 10° NE 02:26:54 27° E 02:27:48 25° ESE visible
01 Jul 11.5 04:01:35 10° N 04:06:15 36° WNW 04:08:21 26° WSW visible
02 Jul 12.8 01:52:24 10° ENE 01:54:47 13° E 01:55:35 13° E visible
02 Jul 10.6 03:29:29 10° N 03:34:36 72° WNW 03:36:09 45° SW visible
03 Jul 10.9 02:57:45 10° NNE 03:02:49 58° E 03:03:57 47° SSE visible
03 Jul 12.4 04:38:16 10° NNW 04:41:40 18° WNW 04:44:30 12° W visible
04 Jul 11.9 02:26:27 10° NE 02:30:53 29° E 02:31:44 27° ESE visible
04 Jul 11.6 04:05:37 10° N 04:10:12 34° WNW 04:12:18 24° WSW visible
05 Jul 12.7 01:56:02 10° ENE 01:58:48 14° E 01:59:32 14° E visible
05 Jul 10.7 03:33:29 10° N 03:38:34 66° WNW 03:40:05 44° SW visible
06 Jul 10.8 03:01:41 10° NNE 03:06:48 63° ESE 03:07:53 50° SSE visible
06 Jul 12.5 04:42:24 10° NNW 04:45:35 17° WNW 04:48:26 11° W visible
07 Jul 11.8 02:30:19 10° NE 02:34:52 31° E 02:35:40 30° ESE visible
07 Jul 11.7 04:09:39 10° N 04:14:08 31° WNW 04:16:14 23° WSW visible
08 Jul 12.6 01:59:43 10° NE 02:02:49 16° E 02:03:27 16° E visible
08 Jul 10.8 03:37:28 10° N 03:42:32 61° WNW 03:44:01 43° SW visible
09 Jul 10.7 03:05:38 10° NNE 03:10:46 69° ESE 03:11:48 54° SSE visible
09 Jul 12.6 04:46:33 10° NNW 04:49:30 16° WNW 04:52:21 10° W visible
10 Jul 11.6 02:34:12 10° NNE 02:38:52 34° E 02:39:35 33° ESE visible
10 Jul 11.8 04:13:42 10° N 04:18:04 29° WNW 04:20:09 22° WSW visible
